User: anonymous   Login
Location: Unspecified
(0.0000°N, 0.0000°E)
Time: 16:30:39
(UTC+00:00)
Language:

TACSAT 4 - Orbit

View from above orbital plane
View from above orbital plane
View from above satellite
View from above satellite

Ground track
Ground track

The orbit data is extracted from the following two-line orbital elements,

1 37818U 11052A   18109.97649553 -.00000565 +00000-0 -13015-2 0  9993
2 37818 063.2137 280.9347 4551871 215.7411 343.3951 06.02680073144331
Epoch (UTC): 19 April 2018 23:26:09
Eccentricity: 0.4551871
inclination: 63.2137°
perigee height: 571 km
apogee height: 12182 km
right ascension of ascending node: 280.9347°
argument of perigee: 215.7411°
revolutions per day: 6.02680073
mean anomaly at epoch: 343.3951°
orbit number at epoch: 14433

The dashed part of the orbit path shows where the satellite is in the earth's shadow,  

DLR